Weather reports worldwide

Advertisment
Leck, Germany (10022): temperature & dewpoint: 12.10.2018 03:00:00 - 18.10.2018 03:00:00 (CEST)Leck, Germany (10022): temperature 5cm & temperature -5cm: 12.10.2018 03:00:00 - 18.10.2018 03:00:00 (CEST)Leck, Germany (10022): temperature -20cm & temperature -100cm: 12.10.2018 03:00:00 - 18.10.2018 03:00:00 (CEST)Leck, Germany (10022): wind speed & gusts: 12.10.2018 03:00:00 - 18.10.2018 03:00:00 (CEST)Leck, Germany (10022): wind direction: 12.10.2018 03:00:00 - 18.10.2018 03:00:00 (CEST)Leck, Germany (10022): reduced air pressure: 12.10.2018 03:00:00 - 18.10.2018 03:00:00 (CEST)Leck, Germany (10022): visibility: 12.10.2018 03:00:00 - 18.10.2018 03:00:00 (CEST)Leck, Germany (10022): sunshine duration: 12.10.2018 03:00:00 - 18.10.2018 03:00:00 (CEST)Leck, Germany (10022): precipitation: 12.10.2018 03:00:00 - 18.10.2018 03:00:00 (CEST)
Date & Time tt [°C] td [°C] tt 5cm [°C] tt -5cm [°C] tt -20cm [°C] tt -100cm [°C] ff [km/h] ff [kn] fx [km/h] fx [kn] dd ppp [hPa] vv [km] sd [min] rr [mm]
18.10.2018 03:00:00 12,0 11,9 11,5 12,6 13,6 13,4 5 3 6 4 WNW 1020,6 0,1 0 0,0
18.10.2018 02:00:00 11,6 11,5 11,0 12,5 13,7 13,4 5 3 7 4 WNW 1020,6 0,1 0 0,0
18.10.2018 01:00:00 11,3 11,2 11,2 12,5 13,8 13,4 6 3 8 4 N 1020,6 0,2 0 0,0
18.10.2018 00:00:00 11,2 11,1 10,2 12,8 14,0 13,4 0 0 8 4 N 1020,3 0,1 0 0,0
17.10.2018 23:00:00 11,5 11,3 11,3 12,8 14,1 13,4 5 3 9 5 SSW 1020,4 1,2 0 0,0
17.10.2018 22:00:00 12,2 11,8 8,1 13,2 14,3 13,4 5 3 5 3 SW 1020,3 0,9 0 0,0
17.10.2018 21:00:00 13,7 12,7 10,7 14,3 14,3 13,4 3 2 9 5 W 1019,9 4,3 0 0,0
17.10.2018 20:00:00 14,4 12,9 13,5 15,1 14,4 13,4 7 4 13 7 NW 1019,6 5 0 0,0
17.10.2018 19:00:00 15,0 13,6 14,7 15,7 14,3 13,4 12 6 18 10 NW 1019,2 3,2 0 0,0
17.10.2018 18:00:00 16,1 14,1 15,2 16,6 14,2 13,4 10 5 14 7 W 1018,7 3,1 5 0,0
17.10.2018 17:00:00 17,0 13,7 18,1 16,9 13,9 13,4 9 5 11 6 WSW 1018,5 4,1 7 0,0
17.10.2018 16:00:00 17,0 13,6 17,5 17,2 13,7 13,4 9 5 14 7 WSW 1018,4 4,3 0 0,0
17.10.2018 15:00:00 16,9 13,1 17,6 17,2 13,3 13,4 13 7 16 8 SW 1018,5 4,8 0 0,0
17.10.2018 14:00:00 17,7 12,8 19,2 17,1 13,0 13,4 11 6 21 12 SSW 1018,3 6 33 0,0
17.10.2018 13:00:00 17,5 12,7 19,0 16,0 12,7 13,4 19 10 25 13 SSW 1018,3 6 54 0,0
17.10.2018 12:00:00 16,8 14,0 17,0 13,7 12,6 13,4 11 6 17 9 S 1018,3 5 0 0,0
17.10.2018 11:00:00 14,8 12,2 14,4 12,4 12,6 13,4 13 7 19 10 S 1018,2 5 5 0,0
17.10.2018 10:00:00 11,8 11,5 11,1 11,1 12,7 13,4 6 4 12 7 SE 1018,1 2,1 0 0,0
17.10.2018 09:00:00 11,5 11,1 10,7 11,0 12,8 13,4 11 6 16 9 ESE 1017,9 1,9 0 0,0
17.10.2018 08:00:00 10,9 10,9 9,6 10,7 12,9 13,4 9 5 14 7 SSE 1017,7 2,0 0 0,0
17.10.2018 07:00:00 10,9 10,8 9,2 11,0 13,0 13,4 8 4 11 6 E 1017,6 0,9 0 0,0
17.10.2018 06:00:00 11,5 11,4 10,6 11,1 13,1 13,4 10 5 11 6 ESE 1017,6 0,8 0 0,0
17.10.2018 05:00:00 10,8 10,7 10,1 11,0 13,3 13,4 9 5 10 5 ESE 1017,5 0,2 0 0,0
17.10.2018 04:00:00 11,0 11,0 8,9 11,3 13,4 13,4 8 4 9 5 E 1017,7 1,1 0 0,0
17.10.2018 03:00:00 11,4 11,4 9,7 11,6 13,6 13,4 8 4 10 5 ESE 1017,9 1,1 0 0,0
17.10.2018 02:00:00 11,3 11,2 10,2 11,7 13,7 13,4 8 5 11 6 ESE 1018,2 0,9 0 0,0
17.10.2018 01:00:00 11,9 11,8 10,7 11,8 13,9 13,4 7 4 10 5 SE 1018,2 1,2 0 0,0
17.10.2018 00:00:00 11,5 11,4 10,0 12,2 14,1 13,4 8 5 9 5 E 1018,3 1,3 0 0,0
16.10.2018 23:00:00 11,1 11,1 10,0 12,7 14,3 13,4 8 4 9 5 ESE 1018,5 0,2 0 0,0
16.10.2018 22:00:00 11,3 11,2 10,2 13,3 14,4 13,4 6 4 10 5 ESE 1018,6 0,1 0 0,0
16.10.2018 21:00:00 13,0 12,9 11,7 14,2 14,5 13,4 6 3 10 5 S 1018,8 0,1 0 0,0
16.10.2018 20:00:00 14,3 13,6 13,2 14,7 14,6 13,4 7 4 15 8 S 1018,9 1,8 0 0,0
16.10.2018 19:00:00 14,1 13,3 12,9 14,9 14,6 13,4 6 3 10 5 SSW 1018,8 2,7 0 0,0
16.10.2018 18:00:00 15,6 13,7 14,4 16,2 14,5 13,4 9 5 14 8 WSW 1018,3 3,8 6 0,0
16.10.2018 17:00:00 16,5 14,0 16,2 16,9 14,3 13,4 12 7 18 10 SSW 1018,3 5 14 0,0
16.10.2018 16:00:00 17,1 13,9 17,9 17,4 14,1 13,4 13 7 19 10 SSW 1018,0 6 8 0,0
16.10.2018 15:00:00 17,1 13,8 19,0 16,7 13,9 13,4 10 5 17 9 SW 1017,8 6 0 0,0
16.10.2018 14:00:00 16,5 14,4 17,1 16,7 13,7 13,4 13 7 19 10 SW 1017,6 4,0 0 0,0
16.10.2018 13:00:00 17,1 15,2 19,1 16,2 13,4 13,3 11 6 16 9 S 1017,5 3,4 0 0,0
16.10.2018 12:00:00 16,1 14,2 17,1 14,9 13,3 13,3 9 5 14 8 SSW 1017,5 3,2 0 0,0
16.10.2018 11:00:00 15,3 13,9 16,5 13,9 13,2 13,3 7 4 10 5 SSW 1017,3 3,4 0 0,0
16.10.2018 10:00:00 13,1 12,4 13,5 12,4 13,3 13,3 3 1 8 5 E 1017,0 2,2 0 0,0
16.10.2018 09:00:00 11,3 10,8 10,6 11,8 13,4 13,3 6 3 7 4 ESE 1016,6 1,1 0 0,0
16.10.2018 08:00:00 11,6 11,2 10,2 11,9 13,5 13,3 2 1 6 3 WNW 1016,3 1,6 0 0,0
16.10.2018 07:00:00 11,2 10,7 10,5 11,9 13,6 13,3 3 2 5 3 NW 1015,6 1,7 0 0,0
16.10.2018 06:00:00 10,8 10,5 9,3 11,8 13,7 13,3 3 1 9 5 ESE 1015,2 1,6 0 0,0
16.10.2018 05:00:00 12,1 11,5 10,4 12,3 13,9 13,3 3 2 10 5 NW 1015,2 1,9 0 0,0
16.10.2018 04:00:00 11,9 11,0 8,7 12,5 14,0 13,3 5 3 6 3 SW 1015,2 1,6 0 0,0
16.10.2018 03:00:00 12,9 11,9 11,3 13,2 14,1 13,3 4 2 6 3 S 1015,2 2,4 0 0,0
16.10.2018 02:00:00 13,0 12,0 11,7 13,3 14,2 13,3 6 3 7 4 ESE 1014,8 2,4 0 0,0
16.10.2018 01:00:00 13,1 12,2 12,6 13,3 14,3 13,3 4 2 6 4 N 1014,7 2,7 0 0,0
16.10.2018 00:00:00 12,7 12,0 12,4 13,0 14,5 13,3 5 3 7 4 ESE 1014,6 2,3 0 0,0
15.10.2018 23:00:00 10,8 10,0 9,9 12,6 14,8 13,3 4 2 6 4 N 1014,4 3,7 0 0,0
15.10.2018 22:00:00 11,0 10,1 8,7 13,2 15,0 13,3 5 3 8 5 ENE 1014,1 2,7 0 0,0
15.10.2018 21:00:00 11,6 10,4 9,6 14,0 15,2 13,3 6 3 8 5 NW 1014,0 4,2 0 0,0
15.10.2018 20:00:00 13,0 11,3 10,2 15,1 15,3 13,3 3 2 5 3 NE 1013,7 4,4 0 0,0
15.10.2018 19:00:00 15,1 12,0 12,0 16,4 15,4 13,3 0 0 9 5 N 1013,4 6 0 0,0
15.10.2018 18:00:00 17,3 12,6 16,0 18,0 15,3 13,3 9 5 13 7 SW 1012,9 7 51 0,0
15.10.2018 17:00:00 19,4 12,9 20,2 19,0 15,0 13,3 9 5 16 9 SSW 1012,5 9 60 0,0
15.10.2018 16:00:00 20,0 13,1 22,0 20,4 14,6 13,3 9 5 19 10 SW 1012,2 6 60 0,0
15.10.2018 15:00:00 20,5 12,5 23,2 20,5 14,1 13,3 11 6 16 9 SSW 1012,1 8 60 0,0
15.10.2018 14:00:00 20,3 12,1 23,1 19,9 13,7 13,2 9 5 14 8 SSW 1012,1 9 60 0,0
15.10.2018 13:00:00 20,1 11,0 23,0 18,4 13,3 13,2 6 3 13 7 S 1012,3 13 60 0,0
15.10.2018 12:00:00 18,5 11,5 21,3 16,3 13,1 13,2 8 5 16 9 SSE 1012,3 9 60 0,0
15.10.2018 11:00:00 17,6 11,1 19,8 14,0 13,0 13,2 8 4 13 7 S 1012,1 11 60 0,0
15.10.2018 10:00:00 13,4 10,0 14,9 11,8 13,2 13,2 7 4 12 6 E 1012,0 8 60 0,0
15.10.2018 09:00:00 11,0 8,9 10,0 10,5 13,4 13,2 9 5 13 7 E 1011,7 5 16 0,0
15.10.2018 08:00:00 9,6 8,2 7,4 10,7 13,6 13,2 10 5 14 7 E 1011,3 4,7 0 0,0
15.10.2018 07:00:00 10,0 8,4 8,7 11,1 13,8 13,2 11 6 13 7 E 1011,0 4,8 0 0,0
15.10.2018 06:00:00 10,4 8,4 8,3 11,6 14,0 13,2 9 5 14 7 E 1010,8 6 0 0,0
15.10.2018 05:00:00 11,3 9,2 9,2 12,1 14,2 13,2 9 5 12 7 E 1010,6 7 0 0,0
15.10.2018 04:00:00 12,2 9,4 10,3 12,7 14,4 13,2 10 5 13 7 ESE 1010,6 8 0 0,0
15.10.2018 03:00:00 15,4 10,1 12,5 13,3 14,5 13,2 11 6 18 10 SSE 1010,5 13 0 0,0
15.10.2018 02:00:00 16,2 10,3 13,7 13,8 14,6 13,2 13 7 23 12 SSE 1010,4 14 0 0,0
15.10.2018 01:00:00 17,4 10,5 15,0 14,3 14,7 13,2 14 8 27 14 SSE 1010,1 15 0 0,0
15.10.2018 00:00:00 18,6 10,6 16,4 14,7 14,9 13,2 19 11 34 18 SSE 1010,0 15 0 0,0
14.10.2018 23:00:00 18,8 10,8 16,6 14,7 15,0 13,2 18 10 27 14 SSE 1009,9 16 0 0,0
14.10.2018 22:00:00 18,7 11,0 16,8 14,9 15,1 13,2 18 10 30 16 SSE 1009,8 15 0 0,0
14.10.2018 21:00:00 18,6 11,2 16,4 15,2 15,3 13,1 19 10 33 18 SSE 1009,5 15 0 0,0
14.10.2018 20:00:00 18,4 11,6 15,9 15,8 15,4 13,1 17 9 26 14 SSE 1009,2 15 0 0,0
14.10.2018 19:00:00 18,3 11,8 16,0 16,7 15,4 13,1 14 8 28 15 SSE 1009,0 14 1 0,0
14.10.2018 18:00:00 19,7 11,9 18,3 18,0 15,2 13,1 20 11 29 16 SSE 1008,5 14 60 0,0
14.10.2018 17:00:00 20,6 12,0 20,9 18,8 15,0 13,1 16 9 32 18 SE 1008,6 11 60 0,0
14.10.2018 16:00:00 21,3 11,9 22,7 20,0 14,6 13,1 20 11 32 18 SSE 1008,9 8 60 0,0
14.10.2018 15:00:00 21,5 11,6 23,3 20,2 14,2 13,1 15 8 26 14 SSE 1009,0 10 60 0,0
14.10.2018 14:00:00 20,7 11,4 22,1 19,5 13,8 13,1 13 7 28 15 SE 1009,8 15 60 0,0
14.10.2018 13:00:00 19,4 11,0 20,9 18,2 13,5 13,1 19 11 27 14 ESE 1010,2 9 60 0,0
14.10.2018 12:00:00 18,4 10,2 20,1 16,5 13,4 13,1 16 8 24 13 SSE 1011,1 10 60 0,0
14.10.2018 11:00:00 16,5 9,9 17,7 14,3 13,3 13,1 18 10 26 14 SE 1011,3 8 60 0,0
14.10.2018 10:00:00 14,7 9,4 15,1 12,4 13,5 13,0 18 10 27 15 SE 1011,6 7 60 0,0
14.10.2018 09:00:00 12,8 8,5 11,9 10,9 13,7 13,0 10 5 19 10 SE 1012,0 9 18 0,0
14.10.2018 08:00:00 10,6 8,1 7,7 11,0 13,9 13,0 9 5 17 9 ESE 1012,0 8 0 0,0
14.10.2018 07:00:00 12,3 8,6 10,4 11,7 14,2 13,0 15 8 20 11 ESE 1012,3 11 0 0,0
14.10.2018 06:00:00 12,9 9,1 11,1 12,0 14,4 13,0 13 7 17 9 ESE 1012,9 11 0 0,0
14.10.2018 05:00:00 13,3 9,4 10,8 12,6 14,6 13,0 15 8 19 10 E 1013,5 11 0 0,0
14.10.2018 04:00:00 13,6 9,4 10,7 13,4 14,8 13,0 9 5 21 11 E 1014,0 12 0 0,0
14.10.2018 03:00:00 17,0 9,7 14,6 14,0 14,9 13,0 16 9 29 16 SSE 1014,5 19 0 0,0
14.10.2018 02:00:00 17,5 10,2 15,1 14,5 15,1 13,0 16 8 32 17 SE 1014,9 20 0 0,0
14.10.2018 01:00:00 18,5 10,4 16,4 14,9 15,2 13,0 19 10 32 17 SE 1015,2 22 0 0,0
14.10.2018 00:00:00 19,0 11,1 16,6 15,4 15,4 13,0 21 11 35 19 SSE 1015,4 23 0 0,0
13.10.2018 23:00:00 20,2 11,6 18,0 15,7 15,5 13,0 22 12 38 21 SSE 1015,6 27 0 0,0
13.10.2018 22:00:00 19,7 12,5 17,8 16,1 15,7 13,0 18 10 26 14 SE 1015,8 25 0 0,0
13.10.2018 21:00:00 19,7 13,3 18,1 16,6 15,8 13,0 16 9 23 12 SE 1016,1 30 0 0,0
13.10.2018 20:00:00 20,4 13,7 18,6 17,2 15,9 13,0 15 8 21 11 SE 1016,7 40 0 0,0
13.10.2018 19:00:00 20,3 14,1 17,9 18,2 15,9 12,9 13 7 19 11 SE 1016,9 36 1 0,0
13.10.2018 18:00:00 22,0 14,9 20,3 19,7 15,7 12,9 12 7 23 13 SSE 1016,9 43 59 0,0
13.10.2018 17:00:00 23,5 15,0 23,8 20,6 15,4 12,9 16 9 31 17 SSE 1017,4 15 60 0,0
13.10.2018 16:00:00 24,0 15,5 25,5 22,0 15,0 12,9 20 11 32 17 S 1017,9 9 60 0,0
13.10.2018 15:00:00 23,5 15,3 25,6 22,0 14,5 12,9 18 10 33 18 S 1018,4 10 60 0,0
13.10.2018 14:00:00 22,8 14,9 24,3 21,5 14,0 12,9 20 11 33 18 S 1019,0 8 60 0,0
13.10.2018 13:00:00 22,1 14,5 24,1 20,1 13,6 12,9 22 12 34 19 S 1019,4 8 60 0,0
13.10.2018 12:00:00 21,5 14,1 23,5 18,6 13,3 12,9 24 13 34 19 S 1019,5 10 60 0,0
13.10.2018 11:00:00 19,7 13,9 20,4 16,2 13,1 12,9 17 9 26 14 S 1019,6 12 59 0,0
13.10.2018 10:00:00 17,8 13,1 17,5 14,0 13,1 12,9 14 8 21 11 SSE 1019,7 18 28 0,0
13.10.2018 09:00:00 16,6 13,0 14,9 12,9 13,2 12,9 12 7 19 10 SSE 1019,6 17 2 0,0
13.10.2018 08:00:00 16,0 12,9 14,0 12,9 13,2 12,9 12 7 20 11 SSE 1019,5 17 0 0,0
13.10.2018 07:00:00 17,2 13,2 15,1 12,9 13,3 12,9 14 7 22 12 S 1019,5 19 0 0,0
13.10.2018 06:00:00 16,7 13,1 14,6 13,1 13,3 12,9 14 7 23 12 S 1019,7 18 0 0,0
13.10.2018 05:00:00 16,9 13,1 14,7 13,3 13,3 12,9 16 9 25 13 S 1019,6 18 0 0,0
13.10.2018 04:00:00 17,7 13,1 15,5 13,4 13,4 12,9 13 7 24 13 SSE 1019,5 22 0 0,0
13.10.2018 03:00:00 18,0 13,0 15,9 13,5 13,4 12,9 13 7 23 12 S 1019,1 23 0 0,0
13.10.2018 02:00:00 17,9 12,9 15,7 13,6 13,5 12,9 16 9 29 15 S 1019,2 25 0 0,0
13.10.2018 01:00:00 18,6 12,9 16,4 13,4 13,5 12,9 16 8 24 13 SSE 1019,2 25 0 0,0
13.10.2018 00:00:00 17,6 13,2 15,5 13,4 13,6 12,9 17 9 27 15 SSE 1019,4 23 0 0,0
12.10.2018 23:00:00 17,0 13,2 14,8 13,5 13,7 12,9 13 7 22 12 SSE 1019,7 22 0 0,0
12.10.2018 22:00:00 17,6 13,4 15,0 13,7 13,8 12,9 13 7 19 10 SSE 1019,7 24 0 0,0
12.10.2018 21:00:00 18,1 13,6 15,5 13,8 14,0 12,9 13 7 22 12 SSE 1019,5 25 0 0,0
12.10.2018 20:00:00 16,2 13,2 13,1 14,2 14,0 12,9 11 6 16 9 SSE 1019,6 21 0 0,0
12.10.2018 19:00:00 16,2 12,9 12,3 15,3 14,0 12,9 10 5 16 9 SE 1019,5 23 0 0,0
12.10.2018 18:00:00 18,9 13,3 16,2 16,7 13,9 12,9 8 4 22 12 S 1019,7 23 46 0,0
12.10.2018 17:00:00 20,2 13,4 20,5 17,6 13,6 12,9 15 8 27 15 S 1019,6 18 60 0,0
12.10.2018 16:00:00 19,9 13,2 20,0 18,7 13,2 12,9 19 10 29 16 SSW 1019,4 23 60 0,0
12.10.2018 15:00:00 19,1 12,1 19,9 18,7 12,8 12,9 19 11 32 18 SSW 1019,2 20 60 0,0
12.10.2018 14:00:00 18,8 13,7 20,2 18,2 12,4 12,9 18 10 30 16 SSW 1018,7 8 60 0,0
12.10.2018 13:00:00 17,9 13,4 19,6 17,4 12,0 12,9 22 12 36 20 SSW 1018,9 7 60 0,0
12.10.2018 12:00:00 18,3 13,5 20,1 16,0 11,6 12,9 22 12 34 18 SSW 1018,6 9 60 0,0
12.10.2018 11:00:00 17,4 12,7 18,7 13,9 11,5 12,9 23 13 34 18 SSW 1018,1 6 60 0,0
12.10.2018 10:00:00 16,0 11,5 16,7 11,4 11,5 12,9 14 7 24 13 S 1017,2 15 60 0,0
12.10.2018 09:00:00 14,0 9,7 11,3 9,2 11,6 12,9 10 6 22 12 SSE 1016,4 9 21 0,0
12.10.2018 08:00:00 9,9 8,3 6,4 8,9 11,7 12,9 6 4 12 6 SE 1015,8 6 0 0,0
12.10.2018 07:00:00 9,8 7,9 7,1 9,1 11,9 12,9 10 5 13 7 E 1014,9 6 0 0,0
12.10.2018 06:00:00 10,3 8,1 7,5 9,4 12,0 12,9 10 5 15 8 E 1014,5 6 0 0,0
12.10.2018 05:00:00 10,9 8,4 7,4 9,7 12,2 12,9 7 4 10 6 ESE 1014,7 7 0 0,0
12.10.2018 04:00:00 11,4 9,0 8,3 10,1 12,3 12,9 8 5 11 6 ESE 1014,6 7 0 0,0
12.10.2018 03:00:00 11,4 9,3 9,2 10,0 12,5 12,9 7 4 11 6 ESE 1014,6 6 0 0,0

tt = temperature
td = dewpoint
tt 5cm = temperature 5cm
tt -5cm = temperature -5cm
tt -20cm = temperature -20cm
tt -100cm = temperature -100cm
ff = wind speed
fx = gusts
dd = wind direction
ppp = reduced air pressure
vv = visibility
sd = sunshine duration
rr = precipitation

Next stations